| time (UTC) | temp F | wind direction | speed MPH | gust MPH | rain 1hr in | rain 24hr in | rain mn in | humidity % | barometer mb |
| 20260506020153 | 56 | 121 | 0.0 | 3.0 | 0.00 | 0.00 | 0.00 | 63 | 1011.8 |
| 20260506014511 | 58 | 319 | 0.0 | 1.0 | 0.00 | 0.00 | 0.00 | 61 | 1011.8 |
| 20260506011520 | 58 | 335 | 2.0 | 4.0 | 0.00 | 0.00 | 0.00 | 60 | 1011.9 |
| 20260506010003 | 58 | 302 | 2.0 | 5.0 | 0.00 | 0.00 | 0.00 | 59 | 1012.0 |
| 20260505223025 | 60 | 301 | 2.0 | 5.0 | 0.00 | 0.00 | 0.00 | 54 | 1012.7 |
| 20260505221511 | 61 | 338 | 3.0 | 5.0 | 0.00 | 0.00 | 0.00 | 53 | 1012.8 |
| 20260505210001 | 63 | 302 | 1.0 | 3.0 | 0.00 | 0.00 | 0.00 | 50 | 1012.8 |
| 20260505193201 | 66 | 263 | 0.0 | 7.0 | 0.00 | 0.00 | 0.00 | 57 | 1011.8 |
| 20260505191502 | 68 | 300 | 2.0 | 8.0 | 0.00 | 0.00 | 0.00 | 54 | 1011.7 |
| 20260505173007 | 75 | 293 | 4.0 | 8.0 | 0.00 | 0.00 | 0.00 | 35 | 1011.3 |
| 20260505171505 | 75 | 306 | 3.0 | 11.0 | 0.00 | 0.00 | 0.00 | 35 | 1011.3 |
| 20260505123014 | 70 | 276 | 3.0 | 10.0 | 0.00 | 0.00 | 0.00 | 38 | 1013.6 |
| 20260505113004 | 67 | 242 | 2.0 | 9.0 | 0.00 | 0.00 | 0.00 | 43 | 1014.4 |
| 20260505101515 | 65 | 355 | 1.0 | 5.0 | 0.00 | 0.00 | 0.00 | 50 | 1014.9 |
| 20260505100018 | 64 | 339 | 3.0 | 10.0 | 0.00 | 0.00 | 0.00 | 51 | 1015.0 |
| 20260505094512 | 63 | 41 | 0.0 | 9.0 | 0.00 | 0.00 | 0.00 | 53 | 1015.1 |
| 20260505093004 | 63 | 40 | 0.0 | 8.0 | 0.00 | 0.00 | 0.00 | 52 | 1015.1 |
| 20260505084523 | 62 | 290 | 1.0 | 3.0 | 0.00 | 0.00 | 0.00 | 53 | 1015.1 |
| 20260505081517 | 60 | 345 | 2.0 | 5.0 | 0.00 | 0.00 | 0.00 | 56 | 1015.2 |
| 20260505074504 | 59 | 11 | 1.0 | 4.0 | 0.00 | 0.00 | 0.00 | 59 | 1015.3 |
| 20260505054505 | 55 | 342 | 1.0 | 2.0 | 0.00 | 0.00 | 0.00 | 68 | 1014.6 |
| 20260505053004 | 55 | 340 | 0.0 | 2.0 | 0.00 | 0.00 | 0.00 | 68 | 1014.4 |
| 20260505051501 | 55 | 345 | 0.0 | 5.0 | 0.00 | 0.00 | 0.00 | 67 | 1014.3 |
| 20260505041540 | 55 | 18 | 1.0 | 3.0 | 0.00 | 0.00 | 0.00 | 68 | 1014.2 |